| time (UTC) | temp F | wind direction | speed MPH | gust MPH | rain 1hr in | rain 24hr in | rain mn in | humidity % | barometer mb |
| 20260508204604 | 75 | 59 | 0.0 | 4.0 | 0.00 | 0.04 | 0.04 | 91 | 1010.0 |
| 20260508203100 | 76 | 45 | 0.0 | 3.0 | 0.00 | 0.04 | 0.04 | 91 | 1010.3 |
| 20260508201612 | 75 | 69 | 1.0 | 5.0 | 0.00 | 0.04 | 0.04 | 92 | 1010.0 |
| 20260508200100 | 73 | 59 | 0.0 | 5.0 | 0.00 | 0.04 | 0.04 | 93 | 1010.3 |
| 20260508200001 | 73 | 59 | 0.0 | 5.0 | 0.00 | 0.04 | 0.04 | 93 | 1010.3 |
| 20260508194624 | 72 | 53 | 0.0 | 3.0 | 0.00 | 0.04 | 0.04 | 93 | 1010.8 |
| 20260508193002 | 71 | 87 | 0.0 | 2.0 | 0.00 | 0.04 | 0.04 | 93 | 1011.0 |
| 20260508191602 | 71 | 88 | 0.0 | 3.0 | 0.00 | 0.04 | 0.04 | 93 | 1011.3 |
| 20260508190100 | 71 | 67 | 0.0 | 2.0 | 0.00 | 0.04 | 0.04 | 93 | 1011.4 |
| 20260508190005 | 71 | 67 | 0.0 | 2.0 | 0.00 | 0.04 | 0.04 | 93 | 1011.3 |
| 20260508184602 | 71 | 66 | 0.0 | 4.0 | 0.01 | 0.04 | 0.04 | 93 | 1011.1 |
| 20260508183059 | 71 | 57 | 0.0 | 4.0 | 0.02 | 0.04 | 0.04 | 93 | 1011.3 |
| 20260508181635 | 71 | 63 | 3.0 | 7.0 | 0.02 | 0.04 | 0.04 | 93 | 1011.2 |
| 20260508180110 | 71 | 54 | 0.0 | 4.0 | 0.03 | 0.04 | 0.04 | 93 | 1011.4 |
| 20260508180002 | 71 | 60 | 0.0 | 4.0 | 0.03 | 0.04 | 0.04 | 93 | 1011.4 |
| 20260508174605 | 70 | 47 | 0.0 | 1.0 | 0.02 | 0.03 | 0.03 | 93 | 1012.0 |
| 20260508173059 | 70 | 46 | 0.0 | 3.0 | 0.01 | 0.02 | 0.02 | 93 | 1012.1 |
| 20260508171600 | 70 | 44 | 0.0 | 2.0 | 0.01 | 0.02 | 0.02 | 92 | 1012.2 |
| 20260508170059 | 70 | 54 | 0.0 | 4.0 | 0.00 | 0.01 | 0.01 | 91 | 1012.2 |
| 20260508164559 | 70 | 49 | 0.0 | 5.0 | 0.00 | 0.01 | 0.01 | 91 | 1012.3 |
| 20260508163105 | 70 | 86 | 1.0 | 5.0 | 0.00 | 0.01 | 0.01 | 91 | 1012.5 |
| 20260508161607 | 70 | 51 | 2.0 | 7.0 | 0.00 | 0.01 | 0.01 | 91 | 1012.0 |
| 20260508160001 | 69 | 69 | 0.0 | 6.0 | 0.00 | 0.01 | 0.01 | 91 | 1012.6 |
| 20260508154600 | 69 | 77 | 0.0 | 3.0 | 0.00 | 0.01 | 0.01 | 91 | 1013.0 |
| 20260508151607 | 70 | 176 | 1.0 | 4.0 | 0.01 | 0.01 | 0.01 | 92 | 1012.8 |
| 20260508150058 | 70 | 79 | 0.0 | 2.0 | 0.01 | 0.01 | 0.01 | 92 | 1012.9 |
| 20260508144558 | 70 | 73 | 0.0 | 3.0 | 0.01 | 0.01 | 0.01 | 92 | 1013.0 |
| 20260508143058 | 70 | 74 | 0.0 | 2.0 | 0.01 | 0.01 | 0.01 | 91 | 1012.9 |
| 20260508140059 | 70 | 71 | 0.0 | 3.0 | 0.00 | 0.00 | 0.00 | 90 | 1012.8 |
| 20260508140002 | 70 | 71 | 0.0 | 3.0 | 0.00 | 0.00 | 0.00 | 90 | 1012.8 |
| 20260508134559 | 70 | 71 | 0.0 | 3.0 | 0.00 | 0.00 | 0.00 | 90 | 1012.8 |
| 20260508133108 | 70 | 53 | 1.0 | 4.0 | 0.00 | 0.00 | 0.00 | 90 | 1012.8 |
| 20260508131558 | 70 | 62 | 0.0 | 4.0 | 0.00 | 0.00 | 0.00 | 90 | 1012.8 |
| 20260508130059 | 70 | 53 | 1.0 | 3.0 | 0.00 | 0.00 | 0.00 | 89 | 1012.9 |
| 20260508124559 | 70 | 51 | 0.0 | 4.0 | 0.00 | 0.00 | 0.00 | 88 | 1013.2 |
| 20260508123106 | 70 | 84 | 0.0 | 3.0 | 0.00 | 0.00 | 0.00 | 88 | 1013.1 |
| 20260508121602 | 70 | 144 | 0.0 | 3.0 | 0.00 | 0.00 | 0.00 | 88 | 1012.8 |
| 20260508114559 | 69 | 52 | 0.0 | 3.0 | 0.00 | 0.00 | 0.00 | 88 | 1013.5 |
| 20260508113102 | 69 | 56 | 0.0 | 4.0 | 0.00 | 0.00 | 0.00 | 88 | 1013.3 |
| 20260508111608 | 69 | 50 | 0.0 | 5.0 | 0.00 | 0.00 | 0.00 | 87 | 1012.7 |
| 20260508110104 | 70 | 66 | 1.0 | 4.0 | 0.00 | 0.00 | 0.00 | 86 | 1012.7 |
| 20260508110001 | 70 | 71 | 0.0 | 2.0 | 0.00 | 0.00 | 0.00 | 86 | 1012.7 |
| 20260508104600 | 70 | 70 | 0.0 | 3.0 | 0.00 | 0.00 | 0.00 | 85 | 1013.1 |
| 20260508103101 | 70 | 107 | 0.0 | 2.0 | 0.00 | 0.00 | 0.00 | 85 | 1012.6 |
| 20260508101600 | 71 | 87 | 0.0 | 3.0 | 0.00 | 0.00 | 0.00 | 84 | 1012.7 |
| 20260508100057 | 71 | 90 | 0.0 | 2.0 | 0.00 | 0.00 | 0.00 | 84 | 1013.2 |
| 20260508100003 | 71 | 90 | 0.0 | 2.0 | 0.00 | 0.00 | 0.00 | 84 | 1013.2 |
| 20260508094607 | 71 | 77 | 0.0 | 2.0 | 0.00 | 0.00 | 0.00 | 84 | 1012.8 |
| 20260508093058 | 71 | 197 | 0.0 | 4.0 | 0.00 | 0.00 | 0.00 | 84 | 1012.8 |
| 20260508091602 | 71 | 60 | 1.0 | 3.0 | 0.00 | 0.00 | 0.00 | 83 | 1012.1 |
| 20260508084559 | 72 | 59 | 0.0 | 2.0 | 0.00 | 0.00 | 0.00 | 82 | 1012.4 |
| 20260508083102 | 72 | 61 | 0.0 | 1.0 | 0.00 | 0.00 | 0.00 | 82 | 1012.9 |
| 20260508081631 | 72 | 61 | 0.0 | 1.0 | 0.00 | 0.00 | 0.00 | 82 | 1012.7 |
| 20260508074557 | 72 | 71 | 0.0 | 2.0 | 0.00 | 0.00 | 0.00 | 81 | 1012.9 |
| 20260508073056 | 72 | 76 | 0.0 | 2.0 | 0.00 | 0.00 | 0.00 | 81 | 1013.1 |
| 20260508071559 | 73 | 72 | 0.0 | 2.0 | 0.00 | 0.00 | 0.00 | 81 | 1013.1 |
| 20260508064557 | 73 | 72 | 0.0 | 1.0 | 0.00 | 0.00 | 0.00 | 81 | 1013.5 |
| 20260508063058 | 73 | 72 | 0.0 | 2.0 | 0.00 | 0.00 | 0.00 | 81 | 1013.3 |
| 20260508061558 | 73 | 71 | 0.0 | 2.0 | 0.00 | 0.00 | 0.00 | 80 | 1013.0 |
| 20260508060104 | 73 | 71 | 0.0 | 2.0 | 0.00 | 0.00 | 0.00 | 79 | 1013.0 |
| 20260508054559 | 73 | 66 | 0.0 | 2.0 | 0.00 | 0.00 | 0.00 | 79 | 1013.2 |
| 20260508053101 | 73 | 66 | 0.0 | 2.0 | 0.00 | 0.00 | 0.00 | 78 | 1013.1 |
| 20260508051554 | 73 | 62 | 0.0 | 2.0 | 0.00 | 0.00 | 0.00 | 78 | 1013.4 |
| 20260508044608 | 73 | 76 | 0.0 | 2.0 | 0.00 | 0.00 | 0.00 | 77 | 1013.3 |
| 20260508043002 | 73 | 65 | 0.0 | 1.0 | 0.00 | 0.00 | 0.00 | 78 | 1013.2 |
| 20260508041558 | 73 | 60 | 0.0 | 3.0 | 0.00 | 0.00 | 0.00 | 77 | 1013.7 |
| 20260508034558 | 74 | 62 | 1.0 | 5.0 | 0.00 | 0.00 | 0.00 | 77 | 1012.6 |
| 20260508033058 | 75 | 78 | 1.0 | 5.0 | 0.00 | 0.00 | 0.00 | 77 | 1012.9 |
| 20260508031557 | 75 | 92 | 0.0 | 2.0 | 0.00 | 0.00 | 0.00 | 77 | 1013.7 |
| 20260508024601 | 75 | 38 | 0.0 | 1.0 | 0.00 | 0.00 | 0.00 | 77 | 1013.8 |
| 20260508023057 | 75 | 36 | 0.0 | 1.0 | 0.00 | 0.00 | 0.00 | 77 | 1014.1 |
| 20260508021558 | 76 | 42 | 0.0 | 2.0 | 0.00 | 0.00 | 0.00 | 76 | 1013.6 |
| 20260508020058 | 76 | 42 | 0.0 | 3.0 | 0.00 | 0.00 | 0.00 | 76 | 1013.5 |
| 20260508014558 | 76 | 38 | 0.0 | 1.0 | 0.00 | 0.00 | 0.00 | 75 | 1013.6 |
| 20260508013057 | 77 | 38 | 0.0 | 3.0 | 0.00 | 0.00 | 0.00 | 74 | 1013.6 |
| 20260508011606 | 77 | 36 | 0.0 | 2.0 | 0.00 | 0.00 | 0.00 | 73 | 1013.6 |
| 20260508010100 | 77 | 36 | 0.0 | 3.0 | 0.00 | 0.00 | 0.00 | 72 | 1013.6 |
| 20260508004601 | 77 | 66 | 0.0 | 3.0 | 0.00 | 0.00 | 0.00 | 72 | 1013.8 |
| 20260508003100 | 78 | 31 | 0.0 | 4.0 | 0.00 | 0.00 | 0.00 | 72 | 1013.3 |
| 20260508001600 | 78 | 242 | 0.0 | 2.0 | 0.00 | 0.00 | 0.00 | 73 | 1013.5 |
| 20260508000058 | 78 | 246 | 1.0 | 5.0 | 0.00 | 0.00 | 0.00 | 74 | 1013.5 |
| 20260507234605 | 79 | 239 | 0.0 | 6.0 | 0.00 | 0.00 | 0.00 | 73 | 1013.7 |
| 20260507233059 | 81 | 360 | 0.0 | 2.0 | 0.00 | 0.00 | 0.00 | 73 | 1013.6 |
| 20260507231604 | 80 | 96 | 0.0 | 4.0 | 0.00 | 0.00 | 0.00 | 73 | 1013.4 |
| 20260507230001 | 80 | 60 | 0.0 | 3.0 | 0.00 | 0.00 | 0.00 | 73 | 1013.3 |
| 20260507224602 | 80 | 85 | 1.0 | 5.0 | 0.00 | 0.00 | 0.00 | 72 | 1013.2 |
| 20260507223110 | 81 | 84 | 0.0 | 3.0 | 0.00 | 0.00 | 0.00 | 72 | 1013.0 |
| 20260507221559 | 80 | 61 | 0.0 | 4.0 | 0.00 | 0.00 | 0.00 | 74 | 1013.1 |
| 20260507220105 | 80 | 67 | 0.0 | 3.0 | 0.00 | 0.00 | 0.00 | 74 | 1013.0 |
| 20260507214601 | 80 | 147 | 0.0 | 6.0 | 0.00 | 0.00 | 0.00 | 74 | 1013.4 |
| 20260507213107 | 80 | 271 | 1.0 | 6.0 | 0.00 | 0.00 | 0.00 | 73 | 1013.5 |
| 20260507211559 | 80 | 140 | 0.0 | 4.0 | 0.00 | 0.00 | 0.00 | 73 | 1013.7 |
| 20260507210058 | 80 | 54 | 1.0 | 9.0 | 0.00 | 0.00 | 0.00 | 73 | 1013.9 |